sat.trackr.live / text

‹ back to catalog

VRSS-1

NORAD 38782 · 2012-052A

PAYLOAD ACTIVE UNKNOWN

§ Identity

Operator
Country
VENZ
Launch date
2012-09-29
Launch site
JSC
Launch vehicle
Mass (kg)
RCS (m²)
2.37

External: N2YO · Heavens-Above · Gunter

§ Orbital elements

Epoch: 2026-09-10T04:44:40.124832Z

Period
97.29 min
Inclination
97.6252°
Eccentricity
0.0016985
Mean motion
14.80149242 rev/d
Perigee alt
617.0 km
Apogee alt
640.8 km
Semi-major
7,007.0 km
B*
7.5738e-5
RAAN
225.2256°
Arg perigee
323.9614°
Mean anomaly
36.0453°
Rev number
75,218

§ Raw data

VRSS-11 38782U 12052A   26253.19768663  .00000527  00000+0  75738-4 0  99992 38782  97.6252 225.2256 0016985 323.9614  36.0453 14.80149242752181

JSON: /api/v1/satellites/38782 · /tle

For live sub-satellite position, see the globe view (requires WebGL).

§ Visibility from observer

Set your observer location to see the next 7 days of passes ≥ 10°. The values pass through the URL so the page stays shareable.

No JS? Fill the form by hand. The geolocation button needs JavaScript.

§ Radio — SatNOGS DB

ModeDescriptionDownlinkUplink
BPSK S-band telemetry 2.244 GHz

1 transmitter · refreshed weekly from db.satnogs.org